Wind_Speed
22 23 23 23 23 23 23 23 23 24 24 25 25 25 26 27 27 28 28 29 30 31 32 33 34 34 35 36 36 37 38 39 39 40 41 42 43 43 44 45 45 46 47 47 48 49 49 50 51 51 52 53 54 54 55 55 56 57 57 58 59 59 60 60 60 62 66 67 67 66 65 66 69 72 73 74 73 73 74 76 76 77 77 80 83 80 79
23 24 24 24 25 25 25 25 25 25 26 26 27 27 28 28 29 29 30 31 32 33 34 35 36 37 38 38 39 39 40 41 41 42 43 44 45 46 46 47 48 48 49 50 51 51 52 53 54 54 54 55 56 57 57 58 59 59 60 61 62 62 63 63 62 62 64 68 70 69 68 68 70 73 76 76 76 75 75 77 78 78 78 80 84 82 80
25 25 25 25 26 26 27 27 27 27 28 28 28 29 30 30 31 31 32 33 33 34 35 36 37 38 39 40 41 41 42 43 43 44 45 46 47 48 49 50 50 51 52 52 53 54 55 55 56 57 58 58 59 59 60 61 61 62 63 63 64 64 65 67 66 64 64 66 69 69 67 67 70 73 76 77 77 76 77 79 79 80 79 80 85 84 82
26 26 26 26 26 27 28 28 29 29 29 30 30 31 31 32 33 33 34 34 35 36 37 38 39 40 40 41 42 43 44 45 46 47 48 49 50 50 51 52 53 54 55 55 57 57 58 58 59 60 60 61 62 62 63 64 65 65 66 66 66 65 66 69 69 69 69 70 72 72 70 69 71 74 78 79 79 78 80 81 82 83 81 82 86 86 84
27 27 27 27 27 27 27 28 29 30 30 31 32 32 33 33 34 35 36 36 37 38 39 40 40 42 42 43 45 45 47 48 49 50 51 52 53 54 55 55 56 57 58 59 60 60 61 61 62 62 63 64 64 65 66 67 67 68 68 68 69 67 67 70 71 71 72 74 77 77 75 74 75 77 81 83 82 81 83 84 85 85 84 84 86 86 86
28 28 28 28 28 28 29 29 30 30 31 32 33 34 35 35 37 38 38 39 40 41 42 43 44 45 46 47 48 49 50 52 53 54 55 56 57 57 58 59 59 60 61 62 62 63 63 64 64 65 65 66 67 67 68 69 69 70 71 71 72 71 70 72 73 72 74 77 79 80 79 78 78 81 85 86 85 85 85 86 88 87 86 86 86 86 87
29 29 29 29 29 30 30 31 31 32 32 33 34 35 36 37 39 40 41 42 43 44 45 46 47 48 49 50 51 52 54 55 56 57 58 58 59 60 60 61 62 63 63 64 64 64 65 65 66 67 67 68 69 69 70 71 72 72 73 74 75 75 74 74 75 73 75 79 81 82 82 81 82 84 88 90 88 88 88 88 89 89 88 88 87 86 87
30 30 30 30 30 31 31 32 32 33 33 34 34 35 37 38 39 40 41 43 44 45 47 48 49 50 51 52 54 55 55 57 58 58 59 60 61 61 62 63 64 64 65 65 65 66 66 67 67 69 69 70 71 72 72 73 74 75 76 77 78 79 78 79 79 76 76 80 83 84 84 84 85 87 91 92 91 90 89 89 90 90 89 88 86 86 87
31 31 32 32 32 32 33 33 33 34 34 35 35 36 37 38 39 40 41 42 44 45 47 48 49 51 52 53 54 55 56 57 58 59 60 60 61 62 63 63 65 66 66 67 67 67 68 69 70 70 71 72 74 75 75 76 77 78 79 80 81 82 83 83 83 81 79 82 85 85 86 87 88 90 92 93 93 91 90 89 90 90 89 87 85 86 88
34 34 34 34 34 34 35 35 36 36 36 37 38 38 39 40 41 42 42 43 45 46 47 49 50 51 53 54 55 56 57 58 59 60 61 62 63 64 64 65 66 67 68 69 70 70 71 72 73 73 74 75 76 77 78 79 80 81 82 83 84 86 86 87 87 85 83 85 87 87 87 88 90 93 94 94 93 92 90 89 89 90 89 86 86 88 90
36 36 36 37 37 37 37 38 38 39 39 40 41 42 42 43 44 45 45 46 48 49 50 51 52 54 55 56 57 58 59 60 61 63 64 65 66 66 67 68 69 70 71 72 73 73 74 74 75 76 77 78 79 80 81 82 84 84 86 87 87 89 90 90 90 89 87 88 89 89 88 88 91 95 96 94 93 92 90 88 88 90 89 86 87 90 92
39 39 39 40 40 40 41 41 41 42 42 43 44 45 46 47 47 49 49 50 52 53 53 55 56 57 58 59 60 61 62 64 65 66 67 68 69 70 71 71 72 73 75 75 76 76 77 77 78 79 80 81 82 83 84 85 86 88 89 90 91 92 92 92 93 92 91 90 91 90 87 87 91 97 98 95 94 93 90 87 88 91 90 87 88 92 93
40 41 42 42 43 43 44 44 45 45 46 46 47 48 50 50 51 52 53 54 55 56 57 58 60 60 61 62 64 65 66 67 68 69 70 71 72 73 74 75 75 76 77 78 79 79 79 80 81 82 83 84 84 85 87 87 88 90 91 93 93 93 94 94 94 94 93 92 92 91 88 87 92 98 99 97 96 95 92 86 87 92 93 90 91 94 95
41 42 43 44 45 46 46 47 47 48 49 50 50 51 53 53 54 55 56 57 58 59 60 61 62 64 65 65 67 68 69 70 71 72 73 74 75 76 77 78 79 80 80 81 81 82 82 83 83 83 84 85 86 87 88 88 89 91 92 93 94 94 94 95 95 95 95 95 94 93 91 90 94 100 101 99 98 98 94 88 87 92 95 94 95 97 97
38 40 42 43 45 46 47 48 49 50 51 52 53 54 55 56 57 58 59 60 60 62 63 64 65 66 67 68 70 71 72 73 74 75 76 77 78 79 80 81 82 83 83 84 84 84 85 85 85 85 85 85 86 86 87 88 88 90 92 93 94 95 96 96 97 97 98 99 98 96 95 95 99 103 103 103 102 100 97 92 89 92 96 98 99 100 101
34 36 38 39 41 42 44 45 47 48 49 51 52 54 55 56 58 58 60 61 62 63 64 65 67 68 69 70 71 72 73 74 76 77 78 79 80 81 81 82 83 84 84 84 85 85 86 86 86 86 85 85 86 86 86 87 89 90 92 94 95 97 98 98 99 101 102 103 103 102 100 101 105 108 107 105 104 102 100 96 92 94 98 101 102 104 105
32 34 35 36 37 39 40 41 43 44 46 47 49 51 52 54 55 56 58 59 60 62 63 65 66 67 69 70 71 73 74 75 76 78 79 80 81 82 83 84 84 84 85 85 86 86 86 87 88 88 88 88 89 90 90 91 92 93 95 96 98 100 101 101 103 104 106 107 107 106 105 106 111 113 110 107 106 105 103 99 96 97 100 103 104 106 106
34 35 36 37 38 39 40 41 42 44 45 47 48 50 51 53 55 57 58 60 61 62 64 66 67 68 69 71 72 73 75 76 78 79 81 82 84 85 86 87 88 88 88 89 89 90 90 91 92 92 92 93 94 94 95 96 97 97 99 100 102 102 104 104 105 107 109 110 110 109 107 109 113 115 113 111 110 108 106 103 100 100 102 104 106 107 108
37 38 38 39 41 42 43 44 45 46 47 49 51 52 54 56 58 59 61 63 64 65 67 69 70 71 73 74 75 77 78 80 81 83 84 86 88 89 91 92 93 93 94 94 95 95 94 95 96 96 96 96 97 98 98 99 100 101 102 103 104 105 106 107 108 109 110 111 111 111 110 111 114 115 115 114 113 111 109 107 104 103 104 105 106 107 108
40 41 42 43 44 45 46 47 48 49 50 52 53 55 57 59 61 62 64 66 68 69 70 72 74 75 76 78 79 80 82 83 85 87 88 90 92 93 95 96 98 99 99 99 99 99 98 98 98 98 98 99 100 100 100 100 101 102 104 105 105 106 108 109 109 110 111 111 111 111 111 112 113 114 115 115 113 112 110 107 103 102 103 104 103 104 106
44 44 45 46 47 48 49 50 51 53 54 55 56 58 60 62 64 65 67 69 71 72 74 75 77 78 80 81 82 84 85 87 88 90 91 93 95 96 97 98 100 102 102 103 102 102 101 100 100 99 99 99 100 100 100 99 98 99 102 104 103 104 107 109 109 109 110 111 109 108 109 111 111 112 113 114 112 111 109 105 100 99 99 100 100 100 102
48 48 49 50 51 52 53 54 55 56 57 59 60 61 63 65 67 69 71 72 74 75 77 78 80 81 83 84 85 87 88 90 91 92 93 95 97 98 99 99 101 102 104 104 104 103 102 100 100 99 98 98 98 97 97 97 95 95 97 98 98 99 102 104 105 105 106 107 105 104 105 106 108 110 112 112 111 110 108 105 101 98 97 97 97 97 98
51 52 53 53 54 55 56 58 59 60 62 63 64 65 67 69 71 73 74 76 77 78 79 81 82 84 85 86 87 88 89 90 92 93 94 94 95 97 98 98 98 99 101 102 103 104 103 101 99 97 96 96 96 94 93 93 92 91 91 91 93 95 97 99 100 100 101 100 99 100 100 100 102 106 108 108 108 107 106 105 102 99 97 96 96 96 96
54 54 55 56 57 58 59 60 62 63 64 66 67 68 70 71 73 75 77 78 80 80 81 82 83 84 85 86 87 87 88 89 89 90 91 92 92 93 94 95 95 96 96 98 100 102 102 102 100 97 95 95 94 92 92 91 90 89 88 87 90 93 94 95 96 97 98 96 94 95 96 95 97 101 104 105 105 105 105 104 102 100 98 96 96 96 95
56 57 58 58 59 60 61 62 63 65 66 67 68 69 71 72 74 76 77 79 80 81 81 81 82 83 84 85 85 85 86 86 87 87 88 89 90 90 91 92 93 93 94 95 97 99 101 102 102 100 97 95 93 92 92 91 90 88 87 87 90 91 91 91 93 94 95 93 91 91 92 90 92 96 98 99 100 100 101 102 101 99 97 95 94 94 93
57 58 59 60 61 62 63 64 65 66 67 68 69 70 71 72 73 74 75 77 78 79 79 79 80 81 82 83 84 84 84 85 85 85 85 86 87 88 89 90 91 92 92 93 94 96 98 101 103 103 101 98 95 93 93 92 90 89 88 88 90 89 88 88 90 91 91 90 88 90 90 88 88 92 95 95 95 95 97 99 99 98 96 94 93 93 92
58 59 60 62 63 64 65 66 66 67 67 67 67 68 68 69 70 71 72 73 74 75 76 77 78 80 82 82 83 84 84 84 84 84 84 84 85 86 87 87 88 89 91 92 93 94 95 98 101 104 104 101 98 97 96 95 93 90 90 90 89 88 86 87 88 89 89 87 87 89 89 86 84 86 89 91 91 91 92 94 95 95 94 92 91 91 91
60 61 62 63 64 64 64 64 64 64 64 64 64 64 65 66 68 68 69 70 70 71 74 76 77 79 81 82 83 84 84 84 84 83 83 83 83 84 85 85 86 87 88 89 91 91 92 93 96 100 104 104 102 101 100 98 95 93 92 90 89 88 87 87 87 88 87 87 87 88 88 86 84 84 85 86 87 87 88 89 90 90 90 89 88 87 86
60 61 61 61 61 61 60 60 60 60 61 61 62 63 64 65 66 66 66 67 67 69 72 74 77 79 80 81 82 83 83 83 83 82 82 82 82 82 83 83 83 83 84 86 87 88 88 89 91 95 100 104 104 103 102 100 97 95 94 92 90 89 88 87 88 87 86 86 88 88 88 87 86 85 85 85 85 86 86 87 88 88 88 88 87 86 85
57 56 56 56 57 57 57 57 58 59 60 61 63 64 64 66 66 65 64 64 65 67 70 73 75 78 80 81 81 82 82 82 82 82 81 81 80 80 80 80 79 79 80 82 84 84 84 86 88 91 95 99 102 103 104 102 99 97 97 95 93 91 89 88 88 87 86 85 86 87 88 87 87 86 86 86 86 85 85 85 86 86 86 87 87 87 86
53 53 53 54 55 56 57 58 59 60 62 63 65 66 67 67 66 64 63 62 64 66 70 73 75 78 79 81 81 82 82 82 82 81 81 80 79 78 77 77 76 75 76 78 80 80 81 82 84 87 90 94 98 99 102 103 102 100 100 98 96 93 91 89 88 88 86 86 85 85 86 87 86 86 86 86 86 86 85 85 85 85 84 85 86 86 86
53 53 54 55 57 58 59 60 62 63 65 66 67 69 69 68 67 65 64 64 65 67 71 74 76 78 79 80 81 81 81 81 82 81 80 79 77 75 74 73 72 71 71 73 75 76 76 77 79 83 86 90 93 95 97 100 101 101 101 101 99 97 94 92 90 89 88 88 87 86 86 87 86 86 86 86 86 86 85 84 84 84 84 84 84 85 85
55 56 57 58 59 60 61 63 65 66 67 69 70 71 72 70 68 67 66 66 67 70 73 75 77 79 80 81 82 82 81 81 81 81 81 79 76 73 70 69 68 67 67 68 71 74 73 72 74 78 82 85 89 91 92 93 95 98 101 102 101 100 98 96 94 92 91 90 89 88 87 87 87 87 86 86 86 86 86 84 83 83 83 83 83 84 84
59 60 60 61 61 62 63 65 67 68 70 71 73 74 74 73 72 70 69 69 71 74 76 77 78 79 81 82 83 83 83 82 81 81 80 79 76 72 69 67 66 64 63 65 68 71 71 69 70 75 79 82 85 88 88 86 87 91 96 100 102 101 100 98 97 95 94 93 91 90 89 88 87 86 86 86 86 86 86 86 85 84 82 82 82 83 83
62 63 63 64 64 64 65 66 68 69 72 74 75 75 76 75 74 73 73 74 76 77 78 79 79 80 81 82 83 84 84 83 83 82 80 79 76 73 69 65 63 62 61 63 66 69 68 67 69 72 76 79 83 87 87 83 82 86 91 95 99 100 100 99 98 97 96 95 94 93 92 91 89 88 87 87 87 86 86 86 86 86 84 83 82 83 82
65 66 66 66 67 66 67 68 69 71 73 75 76 77 77 77 76 77 78 79 79 79 80 81 81 82 82 82 83 83 84 83 83 83 81 79 77 74 69 65 62 61 60 62 65 67 66 66 67 69 72 77 81 85 85 82 81 83 87 90 93 96 98 99 99 98 97 96 95 95 95 94 93 92 91 90 89 89 88 86 85 85 84 82 82 82 82
67 68 69 69 69 69 69 70 71 73 75 77 78 79 79 79 79 80 81 81 81 81 82 83 83 83 84 84 84 84 84 84 84 83 81 80 78 74 70 66 63 61 61 63 66 66 64 64 66 66 69 74 80 82 81 81 81 83 85 87 89 93 95 97 99 99 98 97 96 96 96 96 95 95 95 94 94 93 93 91 90 88 86 84 82 82 81
69 70 71 71 71 71 72 73 74 76 77 79 80 81 81 81 82 82 82 82 83 84 84 85 85 85 85 86 86 87 87 86 85 83 81 80 78 74 71 68 65 62 62 64 66 65 63 64 65 65 67 72 77 79 78 78 80 82 83 85 87 89 92 95 97 98 98 97 96 96 96 96 96 95 95 96 95 95 95 95 94 93 91 89 87 85 83
72 72 73 73 74 74 75 76 77 78 79 80 80 81 82 82 82 83 83 84 84 85 85 86 86 87 87 88 88 89 89 88 86 85 84 83 81 76 72 70 67 65 63 64 65 65 64 64 64 65 68 71 75 76 76 76 78 80 82 83 85 87 89 92 94 96 98 98 98 98 98 97 97 96 96 96 96 95 95 95 94 94 93 92 91 90 88
73 74 74 75 75 76 76 77 78 78 79 80 81 82 82 83 83 84 84 84 84 85 86 86 87 88 89 89 90 91 91 90 88 87 86 86 85 80 75 74 72 68 65 65 65 65 65 64 64 66 69 71 72 74 75 76 77 79 80 82 83 85 87 88 91 94 97 98 98 99 99 100 99 99 98 98 97 96 94 93 94 94 94 93 93 93 92
72 73 73 74 74 75 75 76 77 77 78 79 80 81 81 82 82 83 83 84 85 86 87 88 89 90 91 91 91 92 92 91 91 90 88 88 86 82 79 79 77 73 68 67 68 68 67 67 67 68 70 72 73 74 76 76 77 78 79 81 82 83 85 87 89 92 95 98 99 99 100 101 101 101 102 101 100 98 96 95 94 94 94 94 93 93 93
70 71 72 72 73 74 74 75 76 76 77 78 78 79 80 81 82 83 84 85 86 87 88 89 90 90 92 92 92 92 93 93 93 92 90 88 86 84 83 82 80 76 72 71 72 73 73 72 72 71 72 74 76 77 77 78 78 79 79 81 82 84 86 88 89 91 93 96 98 99 100 101 101 102 103 103 103 101 99 99 98 97 96 95 93 93 93
68 69 70 71 72 72 73 74 75 75 76 77 77 78 79 81 82 84 85 86 87 88 89 89 90 91 93 93 94 94 95 96 95 94 92 90 89 87 86 84 81 77 74 75 77 78 78 78 78 77 77 78 79 80 80 80 80 80 81 82 84 86 88 90 91 91 92 94 97 100 101 101 101 101 102 103 103 103 102 101 100 100 99 97 94 93 93
68 70 70 71 72 72 72 73 73 74 75 76 77 78 79 80 82 83 84 86 87 88 89 90 91 92 94 95 95 95 96 97 96 95 94 93 91 91 90 88 82 77 76 79 82 81 80 81 82 82 81 81 82 82 82 83 83 83 83 83 84 86 89 91 92 92 93 95 98 100 101 101 101 101 101 101 102 103 102 102 101 100 99 98 96 95 95
68 70 70 71 72 73 73 73 73 73 74 75 76 77 78 80 81 82 84 85 86 88 90 92 93 95 96 96 96 96 98 99 98 97 96 96 94 93 94 93 87 81 80 84 86 84 82 83 85 85 85 84 84 84 85 85 86 87 86 85 85 86 88 91 92 93 93 95 97 99 100 100 101 102 101 100 99 100 100 101 101 100 99 98 97 97 97
70 71 72 72 72 72 72 72 72 73 73 74 76 77 78 80 81 83 85 86 88 90 92 94 96 97 96 96 97 99 101 102 100 98 99 101 99 96 97 98 93 87 87 90 90 87 86 87 87 87 87 87 86 87 87 87 87 88 88 88 87 87 88 90 92 93 94 95 97 98 99 100 101 101 101 99 97 96 97 98 100 100 100 98 97 96 95
71 72 73 73 73 72 72 71 72 73 74 75 76 78 80 81 84 86 88 89 91 93 95 97 98 96 95 97 101 103 103 103 101 101 103 105 104 102 103 101 96 92 94 96 96 93 91 91 90 90 90 89 89 89 89 88 88 88 88 88 88 88 89 91 91 92 93 94 96 97 98 98 99 99 99 97 95 94 94 95 96 97 98 97 96 94 93
72 74 74 75 74 74 73 72 73 74 76 77 79 80 82 84 86 89 91 92 94 96 97 98 97 95 97 101 104 105 104 105 105 105 106 108 110 110 109 105 100 97 98 99 99 97 95 94 92 92 91 90 90 91 91 90 89 89 88 88 88 88 89 90 91 91 92 93 94 96 96 96 96 96 95 94 93 92 91 91 92 93 94 94 93 92 90
73 75 76 76 76 76 75 75 75 77 79 81 82 83 85 87 89 91 93 95 96 98 98 98 97 98 100 104 105 105 106 109 110 109 109 110 113 115 114 110 105 102 101 101 101 100 99 98 96 94 93 93 94 94 94 94 93 91 90 89 89 88 89 90 90 91 92 92 93 94 94 93 92 92 91 90 90 89 88 87 87 88 89 90 89 88 87
74 75 77 77 78 77 77 77 77 78 81 83 84 86 88 89 91 94 96 97 98 99 99 99 100 102 104 106 106 107 110 112 113 113 112 113 115 117 116 112 108 106 105 105 104 104 103 101 100 98 97 97 97 98 97 96 95 93 92 91 90 90 90 90 90 91 91 91 91 91 90 90 89 89 88 87 86 85 84 82 82 83 84 85 86 85 84
75 76 77 78 79 79 78 78 79 79 80 82 84 87 89 91 93 95 97 99 99 100 101 103 104 106 107 108 109 111 113 114 115 115 114 114 116 117 116 112 110 109 109 108 107 106 104 103 102 101 101 100 100 100 99 98 97 95 94 93 92 91 90 89 89 88 87 86 85 84 84 83 84 84 83 83 82 81 79 78 78 79 80 81 81 81 79
76 76 77 79 80 80 80 80 80 81 81 82 84 87 89 92 95 98 100 101 102 103 104 106 107 108 110 110 111 113 116 117 118 117 115 113 113 114 114 113 113 112 111 109 108 107 106 105 104 103 103 102 101 101 101 100 98 95 94 93 93 92 90 88 86 85 83 80 78 77 77 77 77 77 78 78 78 77 76 76 76 77 77 77 76 75 74
Wind_Direction
208 210 212 213 215 217 218 220 222 223 225 227 229 231 233 235 237 239 241 243 245 247 250 252 254 256 258 261 263 266 268 270 271 273 275 277 279 280 282 284 285 286 288 289 290 291 293 294 295 296 298 299 300 301 302 302 303 303 304 305 305 306 306 307 308 310 310 310 310 310 311 313 313 312 312 312 313 314 314 314 314 315 316 317 317 319 322
213 215 217 219 221 223 224 226 227 229 231 232 234 236 238 239 241 243 245 246 248 250 251 253 255 257 259 262 264 267 269 271 273 275 276 278 280 281 282 284 285 287 288 289 290 291 292 294 295 296 297 298 299 300 301 301 302 303 303 304 304 305 306 305 306 308 309 310 310 310 312 313 313 312 311 310 311 312 312 312 312 313 315 317 316 318 321
217 218 220 222 224 226 229 231 232 234 236 238 239 241 243 245 247 249 250 252 253 255 256 258 259 261 263 265 267 269 271 273 275 277 278 280 281 282 283 285 286 287 288 290 290 292 292 293 294 295 296 297 298 299 300 301 301 302 302 303 303 305 305 305 305 306 306 306 306 306 308 309 309 309 308 307 308 309 310 310 311 312 314 316 315 317 321
221 223 225 226 229 231 233 235 237 239 241 242 244 246 248 250 252 254 255 257 258 260 261 263 264 265 267 269 270 272 274 276 277 279 280 281 282 283 285 286 287 288 289 290 291 292 293 293 294 295 296 297 298 299 299 300 301 301 301 302 302 304 305 304 305 306 306 305 304 304 305 307 308 308 306 305 307 309 310 310 311 312 313 315 315 317 320
225 227 229 231 234 236 238 240 242 244 246 248 249 251 253 255 257 258 260 261 263 264 266 267 269 270 272 273 274 275 277 278 280 281 282 283 284 285 286 287 288 288 289 290 291 292 293 293 294 295 296 297 297 298 299 300 300 300 301 301 301 302 303 303 304 305 306 306 304 304 306 307 308 308 307 306 307 309 310 311 311 312 314 315 315 318 320
226 229 232 234 236 239 241 243 245 247 249 251 252 254 256 258 260 261 263 264 266 267 269 271 272 273 274 276 277 278 279 280 281 282 283 284 285 286 287 287 288 289 290 290 291 292 293 294 294 295 296 296 297 298 298 299 299 300 300 300 300 301 301 301 301 304 306 305 303 303 305 307 308 309 307 306 308 309 310 310 311 312 314 315 315 318 319
228 231 233 236 238 240 243 245 246 248 250 252 253 255 257 258 260 261 263 265 266 268 269 271 272 274 275 276 277 279 279 281 281 282 283 284 285 285 286 287 288 289 289 290 291 292 293 293 294 295 295 296 296 297 297 298 298 299 299 299 299 299 299 299 299 301 304 304 303 303 305 307 308 308 307 306 307 308 309 310 311 312 313 314 315 318 318
233 235 237 239 241 243 245 247 249 250 252 254 255 257 258 260 262 263 264 266 267 268 270 271 272 274 275 276 277 278 279 280 281 282 283 283 284 285 285 286 287 288 289 289 290 291 292 292 293 294 294 295 295 296 296 297 297 298 298 298 298 298 299 299 299 300 303 303 303 303 305 306 307 307 305 305 306 307 308 309 310 311 312 313 315 317 316
239 240 241 243 244 246 248 249 251 253 254 256 258 259 260 262 264 265 266 267 269 270 271 272 273 274 275 276 276 277 278 279 280 281 282 282 283 284 285 286 286 287 288 288 289 290 290 291 292 292 293 294 294 295 295 296 297 297 297 298 298 298 299 299 299 301 302 302 302 303 304 305 306 304 303 304 304 305 307 308 309 309 311 313 315 316 315
243 244 245 247 248 250 251 253 254 256 257 259 260 262 263 264 265 266 267 269 270 270 271 272 273 274 275 276 277 277 278 279 280 281 281 282 282 283 284 285 286 286 287 287 288 289 290 290 291 292 293 293 294 294 295 296 296 297 297 297 298 298 299 299 300 301 302 302 301 302 303 304 304 302 301 302 303 304 305 307 308 309 310 313 315 315 314
246 248 249 250 251 253 254 255 257 258 260 261 263 264 265 266 267 268 268 270 271 271 272 273 273 274 275 276 276 277 278 279 280 281 282 282 282 283 284 284 285 286 286 287 288 288 289 290 291 292 292 293 294 294 295 295 296 297 297 297 298 298 298 299 300 301 301 301 301 302 303 304 303 301 300 301 302 303 304 306 308 308 310 314 315 314 313
249 251 252 253 254 256 257 258 259 261 262 263 265 266 267 268 269 269 270 271 272 272 273 274 274 275 276 277 277 278 279 280 280 281 282 283 283 284 284 285 286 286 287 287 288 289 290 290 291 292 292 293 294 294 295 296 296 297 297 297 298 298 298 299 300 300 301 300 300 301 302 303 301 299 299 300 302 302 303 307 308 308 310 314 314 311 311
252 253 255 256 258 259 260 261 262 263 264 265 266 268 268 269 270 271 271 272 273 274 275 275 276 277 278 279 279 280 280 281 282 282 283 283 284 284 285 285 286 286 287 287 288 288 289 290 291 291 292 292 293 294 295 295 296 296 296 296 297 297 298 299 299 300 300 300 300 300 301 301 299 297 298 300 301 302 304 308 310 308 310 312 311 308 308
253 255 256 258 259 260 262 263 264 265 266 267 267 269 270 270 271 272 273 274 275 276 277 278 278 279 280 280 281 281 282 282 283 283 284 284 285 285 285 286 286 286 286 287 288 288 289 289 290 290 291 292 293 294 294 295 296 296 296 296 297 298 298 298 299 299 299 299 299 300 300 300 298 297 298 299 300 301 304 308 309 308 308 308 306 305 305
258 259 260 261 262 263 264 265 266 267 268 269 270 271 272 272 273 274 275 276 276 277 278 278 279 280 281 281 282 282 283 283 284 284 284 285 285 285 286 286 286 286 287 287 288 289 289 290 290 291 291 292 293 293 294 295 296 296 296 297 297 298 298 298 299 299 299 298 298 299 299 299 297 296 297 298 299 301 303 305 307 306 305 304 303 302 302
264 265 265 266 267 267 268 269 270 270 271 272 273 273 274 275 276 276 277 277 278 278 279 279 280 280 281 282 282 282 283 284 284 284 285 285 285 286 286 286 286 287 287 288 289 289 290 290 291 292 292 293 293 293 294 295 295 295 295 296 296 296 297 297 297 297 297 297 297 297 298 297 296 295 296 297 299 300 301 303 304 304 302 301 301 301 301
268 269 269 270 271 271 272 272 273 274 275 275 276 277 277 278 279 279 280 280 281 281 281 281 282 282 283 283 283 284 285 285 285 286 286 286 287 287 287 287 287 288 288 289 289 290 290 291 292 292 293 293 294 294 294 294 294 294 294 295 295 295 295 296 295 295 295 295 295 296 297 297 295 295 296 298 299 300 300 302 302 301 300 300 300 301 302
267 269 270 271 272 272 273 274 275 276 277 278 279 279 280 281 281 281 282 282 283 283 283 283 284 284 285 285 286 286 287 287 288 288 288 288 288 289 289 289 289 290 290 290 290 291 291 292 292 292 293 293 293 293 294 293 293 293 293 293 293 293 293 293 293 292 292 293 293 294 295 295 294 295 297 298 298 299 299 300 300 300 300 300 300 301 301
267 268 269 270 271 272 273 274 275 276 277 278 279 280 281 282 282 283 283 283 284 284 285 285 285 286 286 287 287 288 288 288 289 289 289 289 290 290 290 290 291 291 291 291 291 291 291 292 292 292 292 292 292 292 292 292 292 292 292 291 291 291 291 290 290 289 290 290 291 292 292 293 293 294 295 296 296 297 298 299 300 300 300 300 300 300 300
267 268 269 270 271 272 273 274 275 276 277 278 279 280 280 281 282 282 283 283 284 284 285 285 286 286 286 287 287 288 288 288 289 289 289 289 290 290 290 291 291 291 292 292 292 292 292 292 292 292 292 291 291 291 291 291 291 291 290 290 290 290 289 288 288 288 288 289 289 290 291 292 292 292 293 294 294 295 296 297 299 299 299 299 299 299 299
269 269 270 271 272 273 274 275 276 277 277 278 279 280 280 281 281 282 282 283 283 284 284 285 285 286 286 287 287 287 288 288 288 289 289 289 290 290 290 291 291 292 292 292 292 292 292 292 292 292 291 291 291 290 290 290 290 290 290 290 290 290 289 288 288 289 289 289 290 291 292 292 293 293 293 293 294 294 295 297 298 298 297 298 298 298 298
270 270 271 272 273 274 275 276 277 277 278 279 279 280 281 281 282 282 283 283 284 284 285 285 286 286 287 287 287 288 288 288 289 289 290 290 290 291 291 291 292 292 292 293 293 293 293 293 293 293 292 292 292 292 292 292 292 291 290 291 291 290 289 289 289 290 290 291 292 293 293 294 294 294 294 294 295 296 298 299 299 298 298 298 298 298 298
271 271 272 273 274 275 276 277 277 278 279 279 280 281 281 282 283 283 283 284 284 285 285 286 287 287 287 288 288 288 289 289 289 290 290 290 291 291 292 292 292 293 294 294 295 295 295 295 294 294 294 294 294 294 294 294 294 293 293 293 293 291 291 291 291 292 293 293 294 294 295 296 296 295 295 296 297 298 299 299 300 300 301 301 301 300 300
272 273 273 274 275 276 277 278 278 279 280 280 281 282 282 283 283 284 284 285 285 286 286 286 287 287 287 288 288 289 289 290 290 290 291 291 292 293 293 294 294 295 295 296 296 297 297 297 296 296 296 296 296 296 296 296 296 296 296 296 294 293 294 295 296 296 296 296 296 297 298 298 297 296 297 297 298 299 300 301 302 302 303 303 303 303 302
273 274 275 276 277 278 278 279 280 280 281 282 283 283 284 285 285 286 286 287 287 288 288 289 289 289 289 289 290 290 290 291 291 292 292 293 294 294 295 295 296 296 297 297 297 298 298 298 298 298 298 298 298 298 298 298 298 298 298 297 296 296 298 299 299 298 298 298 300 299 298 297 297 297 297 298 300 301 302 302 303 303 304 304 304 304 304
276 277 278 279 279 280 280 281 282 282 283 284 285 286 286 287 287 287 288 289 290 291 291 291 291 291 291 291 291 292 292 292 293 293 294 294 295 295 296 296 296 297 297 297 297 297 298 298 298 299 299 299 299 299 299 299 299 300 300 299 299 300 301 300 299 298 298 300 300 299 298 299 299 299 300 301 302 303 303 303 304 304 304 305 305 305 305
279 280 280 281 281 282 282 283 284 285 286 286 287 287 287 287 288 288 289 290 291 292 292 292 292 292 292 292 292 293 293 293 293 294 294 294 295 295 295 296 296 296 296 296 296 296 297 297 298 298 299 300 300 300 300 300 301 302 302 301 302 302 301 300 299 298 299 300 299 298 299 301 301 300 300 301 302 302 302 302 302 303 303 304 304 304 305
280 281 282 282 283 284 284 285 285 286 286 286 286 286 286 287 287 288 289 290 291 291 291 291 291 291 291 292 292 293 293 293 294 294 295 295 295 295 295 295 295 295 295 295 295 295 296 296 296 297 298 300 300 301 301 301 302 303 302 302 302 301 300 300 299 299 300 300 299 299 300 300 300 299 299 299 299 300 300 300 300 301 301 302 302 302 302
282 283 284 284 285 285 286 286 287 287 287 286 286 286 286 287 287 288 289 289 289 288 288 289 289 290 291 292 292 293 294 294 295 295 295 294 294 294 294 294 294 294 294 294 294 294 294 295 295 296 297 298 299 300 301 301 302 302 302 302 302 301 301 302 302 302 302 301 301 300 300 300 300 300 299 299 299 300 300 300 301 301 301 302 302 302 301
284 284 285 285 286 286 287 287 287 287 287 287 286 286 286 286 287 288 289 288 287 287 288 289 290 291 292 293 293 294 295 295 295 295 295 294 294 294 293 294 294 294 294 293 293 293 293 293 293 294 295 297 298 299 300 301 302 302 302 302 302 302 303 303 303 302 302 301 300 300 300 300 300 300 300 300 300 300 301 301 301 302 302 303 303 302 302
283 284 284 284 285 285 286 287 287 287 287 287 288 288 287 287 288 290 290 289 289 290 291 291 292 292 293 294 295 296 296 297 296 296 295 294 294 294 294 294 294 294 293 293 293 292 293 293 293 294 294 295 296 298 300 301 302 302 302 302 302 303 303 303 302 302 302 301 300 300 299 299 300 300 300 300 300 301 301 301 302 302 303 303 303 302 302
281 281 282 283 284 285 286 287 288 288 288 289 289 289 289 289 291 291 291 291 292 293 294 294 294 294 295 296 296 297 298 298 298 297 296 295 295 295 296 296 296 296 295 295 294 293 294 295 295 295 295 296 296 297 299 301 302 302 302 302 303 303 303 303 303 303 303 302 302 301 300 300 300 300 300 300 300 300 301 301 301 302 302 302 302 302 302
280 281 282 284 285 286 288 289 290 291 291 291 291 291 291 292 292 292 293 294 296 297 297 297 297 296 297 297 298 299 299 300 299 299 298 298 298 298 299 299 299 299 299 299 298 297 297 298 299 298 298 297 297 298 299 301 302 303 303 303 303 303 303 303 304 303 303 303 302 302 301 301 301 301 301 301 301 301 301 301 301 301 301 301 301 301 302
284 285 286 287 288 289 291 291 292 293 293 293 293 294 294 295 295 296 297 298 299 299 298 298 298 299 299 301 302 301 301 301 300 300 300 301 301 301 301 302 302 302 303 304 303 302 302 303 303 302 301 300 299 298 299 301 302 302 302 302 302 302 303 303 303 303 303 303 302 302 301 301 301 301 301 301 301 301 301 301 301 301 301 301 301 301 302
287 288 289 289 290 290 291 292 293 294 294 294 295 295 296 297 298 300 301 301 300 300 299 299 300 301 302 303 303 302 301 301 301 301 302 302 302 303 304 304 304 305 307 307 306 305 306 307 306 305 304 303 300 298 298 299 300 300 300 300 301 301 301 302 302 302 302 302 302 302 301 301 301 301 301 301 301 301 301 301 301 301 301 302 302 302 302
286 287 287 287 288 289 290 291 292 293 294 294 296 297 298 299 301 302 301 300 300 300 301 301 302 303 303 303 302 301 301 302 302 303 303 304 305 305 306 307 308 308 310 309 307 306 307 308 307 306 306 305 301 298 299 300 300 299 298 298 299 299 300 300 300 300 300 300 301 301 301 301 301 301 302 302 302 301 301 301 301 300 301 301 301 302 302
284 285 286 287 288 289 291 292 292 293 294 296 297 298 299 300 301 301 300 300 301 302 303 303 304 304 303 303 302 302 303 303 303 304 305 306 307 308 309 310 311 311 312 312 309 307 308 309 307 307 307 306 302 299 300 301 300 298 297 297 296 297 297 298 298 298 299 299 299 299 299 299 300 300 301 301 301 302 302 302 302 303 303 303 303 303 304
285 287 288 289 290 291 292 293 293 294 295 296 297 298 299 299 299 299 300 301 302 303 304 304 304 303 303 304 304 304 304 304 305 306 307 308 309 310 311 312 312 312 313 312 309 308 309 310 308 307 307 304 301 300 301 300 299 297 296 295 295 295 295 295 296 296 296 297 297 297 297 297 297 297 298 298 299 299 300 301 303 304 305 306 306 306 307
288 289 290 291 291 292 293 293 294 295 295 296 296 296 297 297 298 300 301 302 303 303 303 303 303 304 304 305 305 305 305 306 307 308 310 310 310 311 312 313 313 312 312 311 310 309 310 309 308 307 304 301 299 300 301 299 297 295 294 293 293 292 292 292 293 293 294 295 295 295 295 296 296 296 296 296 297 298 299 300 302 304 305 306 306 307 308
290 290 291 291 292 292 293 293 294 294 295 295 295 296 297 299 300 301 301 301 302 302 302 303 304 304 305 305 306 306 306 307 308 310 312 312 312 313 314 315 313 312 313 313 312 311 311 309 308 306 303 300 299 299 298 296 295 294 293 291 291 290 290 290 291 291 292 293 294 294 295 296 296 297 297 297 298 299 301 302 303 303 304 305 306 307 308
292 292 293 293 294 294 294 295 295 295 295 296 297 298 299 299 300 300 300 301 301 302 302 303 304 305 305 305 306 306 307 308 309 311 312 313 313 314 316 316 316 315 316 316 314 313 312 310 307 306 303 301 300 299 297 295 294 293 292 291 290 289 289 289 289 290 290 291 292 293 294 295 296 297 297 298 300 302 303 304 304 304 304 305 306 307 308
295 295 295 295 295 295 295 296 296 296 296 297 298 298 299 299 299 300 300 301 302 302 303 303 304 304 304 305 305 306 307 308 310 311 312 312 313 314 316 317 317 318 319 319 317 315 314 311 309 307 305 304 302 300 298 296 295 293 292 291 290 290 289 289 288 288 289 289 290 291 292 293 294 295 296 298 300 302 303 304 304 305 305 306 306 306 306
297 298 298 298 297 297 297 297 297 297 297 298 298 298 299 299 300 301 301 302 302 302 303 303 304 304 304 305 306 307 309 310 311 312 312 313 314 316 317 318 318 319 320 319 317 316 315 313 311 309 307 305 303 301 299 297 296 294 293 292 291 291 290 290 289 289 289 289 290 291 292 292 293 293 295 297 299 301 302 303 303 304 304 305 305 305 304
299 299 299 299 299 299 299 299 299 299 299 299 300 300 300 300 300 301 301 301 302 302 303 303 304 304 305 305 307 309 310 311 311 312 313 314 316 317 317 317 318 319 319 317 315 314 314 313 311 309 307 305 303 301 299 298 296 294 293 293 292 292 292 291 291 290 290 290 291 291 291 292 292 293 294 296 297 299 300 301 302 302 303 303 303 303 303
300 300 301 301 301 301 301 301 301 301 301 301 300 300 300 300 301 301 301 301 302 303 304 304 304 305 306 307 309 311 311 311 312 314 315 315 316 317 317 317 318 319 317 315 314 314 313 312 310 308 306 304 302 300 299 298 297 296 296 295 294 294 293 292 292 292 292 292 291 291 291 292 292 293 294 296 297 298 299 300 300 300 300 301 301 301 302
302 302 302 302 302 302 301 301 301 301 300 300 300 301 301 301 302 302 302 302 303 304 304 305 305 306 308 310 311 312 312 312 313 315 315 315 316 317 316 316 317 318 316 314 313 313 312 310 308 307 306 304 303 301 301 300 300 299 299 298 298 296 295 294 294 293 293 292 292 292 292 292 293 294 296 297 298 298 298 298 298 299 299 299 299 300 300
302 302 302 302 302 302 301 301 301 301 301 301 301 302 302 302 302 302 302 303 303 304 305 305 307 309 312 312 311 311 312 313 314 315 315 314 315 315 315 315 316 317 316 314 313 313 312 310 308 307 306 305 304 303 302 302 301 301 300 300 299 298 297 296 295 294 294 293 292 292 292 293 294 295 296 297 298 298 297 296 297 297 298 298 299 299 299
303 302 302 302 302 302 301 302 302 302 301 301 301 301 301 302 302 302 302 303 304 304 305 307 310 313 313 311 311 312 313 313 313 314 314 314 314 314 314 314 316 317 316 314 314 313 311 309 308 307 307 306 306 305 304 303 303 302 301 300 299 298 297 296 295 295 294 293 292 293 293 294 295 296 296 297 297 297 296 296 296 296 296 297 298 298 298
303 303 303 302 302 301 301 301 302 301 301 301 301 301 301 301 301 302 303 303 304 305 308 310 313 313 311 310 311 312 312 312 312 312 313 313 313 313 313 315 317 317 316 314 313 313 311 310 309 309 309 309 309 307 306 306 305 304 303 302 301 301 300 299 298 297 296 295 295 296 297 297 298 298 297 297 296 296 295 295 295 295 296 296 296 297 297
303 303 302 301 301 301 301 301 301 301 301 301 302 302 302 302 302 303 303 304 306 308 311 312 312 311 310 310 311 311 311 310 311 312 312 313 313 313 314 316 317 317 316 315 314 313 312 311 312 312 312 312 310 309 308 307 306 306 305 305 305 304 303 302 301 300 299 299 299 300 300 300 300 299 298 298 297 296 296 296 295 295 294 294 295 296 297
303 302 302 301 301 301 301 301 300 300 300 301 301 301 302 302 303 303 304 306 309 310 311 310 310 310 310 310 310 310 309 309 310 311 312 313 313 314 315 316 317 316 315 315 314 313 312 313 314 314 313 312 311 309 308 307 307 307 308 308 307 306 305 304 304 303 303 303 303 303 302 301 300 299 298 298 297 297 297 297 295 294 293 294 295 296 298
304 302 301 300 300 301 300 300 299 299 299 299 299 300 301 301 302 304 306 308 309 309 309 309 309 309 309 309 309 309 308 308 309 310 312 314 315 315 316 317 317 316 315 314 313 313 313 314 314 314 313 311 310 309 308 308 308 309 310 310 309 309 308 308 308 307 307 307 307 306 304 302 301 300 299 299 299 299 298 297 294 294 294 295 297 299 300
Height
10750 10752 10753 10754 10755 10756 10757 10757 10758 10759 10760 10761 10761 10762 10762 10762 10763 10763 10763 10763 10763 10763 10763 10762 10762 10762 10761 10760 10760 10759 10758 10756 10755 10754 10753 10751 10750 10748 10746 10744 10742 10740 10738 10736 10734 10732 10730 10727 10725 10723 10720 10718 10715 10712 10710 10707 10704 10701 10699 10695 10692 10690 10687 10685 10683 10677 10670 10665 10662 10661 10660 10656 10649 10641 10636 10632 10629 10628 10623 10617 10613 10610 10606 10599 10590 10594 10595
10749 10750 10751 10752 10753 10754 10755 10756 10757 10757 10758 10759 10759 10760 10760 10760 10761 10761 10761 10761 10761 10760 10760 10760 10759 10759 10758 10757 10756 10755 10754 10753 10752 10750 10749 10747 10746 10744 10742 10740 10738 10736 10734 10732 10729 10727 10726 10723 10720 10718 10716 10713 10710 10707 10704 10702 10699 10696 10693 10690 10687 10684 10681 10678 10678 10676 10670 10663 10656 10653 10653 10651 10645 10637 10629 10625 10622 10621 10617 10612 10607 10603 10602 10597 10585 10586 10590
10748 10749 10750 10751 10752 10752 10753 10754 10755 10755 10756 10757 10757 10757 10758 10758 10758 10758 10758 10758 10758 10758 10758 10757 10757 10756 10755 10754 10753 10752 10751 10749 10748 10747 10745 10743 10741 10740 10738 10735 10734 10732 10729 10727 10724 10722 10720 10718 10715 10712 10710 10707 10704 10702 10699 10696 10693 10690 10687 10684 10681 10679 10675 10669 10668 10668 10666 10661 10654 10651 10652 10649 10643 10635 10626 10620 10618 10616 10612 10606 10602 10597 10597 10594 10581 10578 10583
10747 10748 10749 10750 10751 10751 10752 10753 10753 10754 10754 10755 10755 10755 10756 10756 10756 10756 10756 10756 10756 10755 10755 10754 10754 10753 10752 10751 10750 10748 10747 10745 10744 10743 10741 10739 10737 10735 10733 10731 10729 10726 10724 10722 10719 10717 10715 10712 10710 10707 10704 10702 10698 10696 10693 10689 10687 10684 10681 10678 10675 10674 10671 10663 10660 10659 10656 10652 10646 10643 10645 10644 10639 10631 10622 10615 10613 10611 10605 10599 10595 10590 10589 10589 10578 10571 10573
10746 10748 10749 10750 10751 10751 10752 10753 10753 10753 10754 10754 10754 10754 10754 10754 10754 10754 10754 10753 10753 10752 10751 10751 10750 10749 10748 10747 10746 10745 10743 10741 10740 10738 10736 10734 10732 10730 10728 10726 10724 10721 10719 10716 10713 10711 10709 10706 10704 10702 10699 10696 10693 10690 10687 10683 10680 10677 10674 10671 10668 10668 10666 10659 10655 10654 10649 10643 10636 10633 10634 10635 10631 10624 10614 10607 10605 10603 10599 10592 10587 10583 10581 10579 10573 10568 10565
10745 10746 10747 10748 10749 10750 10751 10751 10752 10752 10752 10752 10752 10752 10752 10752 10752 10751 10751 10750 10750 10749 10748 10747 10746 10745 10744 10743 10741 10740 10739 10737 10735 10733 10731 10729 10727 10725 10723 10720 10718 10716 10713 10711 10708 10706 10704 10701 10698 10696 10693 10690 10687 10684 10681 10677 10674 10671 10668 10665 10661 10660 10661 10655 10651 10650 10645 10637 10629 10626 10626 10626 10624 10616 10605 10599 10598 10596 10592 10586 10580 10576 10573 10570 10566 10565 10559
10744 10745 10746 10747 10747 10748 10748 10748 10749 10749 10749 10749 10749 10749 10748 10748 10748 10747 10747 10746 10745 10745 10744 10743 10742 10740 10739 10738 10736 10735 10733 10731 10729 10728 10726 10724 10721 10720 10717 10714 10712 10710 10707 10705 10703 10701 10698 10695 10693 10689 10687 10684 10681 10678 10675 10671 10668 10665 10661 10658 10654 10651 10652 10648 10645 10646 10644 10633 10624 10621 10619 10618 10616 10609 10596 10589 10589 10587 10583 10579 10573 10569 10567 10563 10559 10559 10554
10743 10743 10744 10745 10745 10745 10746 10746 10746 10746 10746 10746 10746 10745 10745 10745 10744 10743 10743 10742 10741 10740 10739 10738 10737 10735 10734 10732 10731 10729 10728 10725 10723 10721 10720 10717 10715 10713 10711 10709 10706 10703 10701 10699 10697 10695 10692 10690 10687 10684 10681 10678 10674 10671 10669 10665 10662 10658 10654 10651 10646 10642 10642 10639 10636 10639 10640 10630 10621 10616 10613 10611 10609 10602 10590 10581 10579 10579 10577 10573 10567 10563 10560 10557 10555 10553 10548
10740 10741 10741 10742 10742 10742 10743 10743 10743 10743 10743 10743 10742 10742 10741 10741 10740 10739 10739 10738 10737 10736 10734 10733 10732 10730 10728 10727 10725 10723 10722 10719 10717 10715 10713 10711 10709 10706 10705 10703 10700 10697 10694 10692 10690 10688 10686 10683 10680 10678 10675 10672 10668 10665 10662 10659 10655 10652 10648 10644 10640 10635 10633 10630 10627 10630 10632 10625 10616 10612 10609 10605 10600 10591 10583 10576 10572 10571 10571 10567 10562 10557 10554 10552 10551 10546 10539
10737 10737 10738 10739 10739 10740 10740 10740 10740 10739 10739 10739 10738 10738 10737 10737 10736 10735 10734 10733 10731 10730 10729 10727 10726 10724 10722 10721 10719 10717 10715 10713 10711 10709 10706 10704 10703 10700 10698 10696 10694 10691 10688 10686 10684 10682 10680 10677 10674 10672 10669 10666 10663 10659 10656 10652 10649 10645 10641 10637 10634 10628 10624 10621 10618 10619 10623 10617 10608 10606 10604 10600 10592 10580 10572 10569 10566 10564 10564 10562 10557 10552 10548 10547 10545 10539 10530
10733 10733 10734 10735 10735 10736 10736 10736 10736 10736 10736 10735 10734 10733 10733 10732 10731 10730 10729 10728 10726 10724 10723 10721 10720 10718 10716 10715 10713 10711 10709 10707 10705 10703 10700 10698 10696 10694 10692 10690 10688 10685 10682 10680 10678 10675 10674 10672 10669 10667 10663 10660 10657 10653 10649 10646 10641 10638 10633 10628 10625 10620 10615 10612 10608 10608 10611 10607 10600 10597 10597 10592 10581 10567 10560 10560 10559 10557 10557 10558 10553 10545 10543 10542 10538 10529 10520
10729 10729 10730 10730 10730 10731 10731 10731 10731 10731 10731 10730 10730 10729 10728 10727 10726 10724 10723 10723 10720 10719 10718 10716 10714 10713 10711 10709 10708 10706 10704 10702 10700 10697 10695 10692 10689 10688 10686 10684 10682 10679 10676 10674 10672 10669 10668 10666 10663 10660 10656 10653 10650 10646 10642 10638 10633 10629 10624 10618 10614 10610 10605 10603 10598 10596 10597 10595 10590 10588 10589 10586 10571 10552 10547 10550 10550 10546 10549 10554 10548 10535 10535 10539 10532 10520 10512
10725 10725 10725 10726 10726 10726 10726 10726 10726 10726 10726 10726 10725 10724 10722 10722 10721 10719 10718 10718 10715 10714 10713 10711 10709 10708 10706 10704 10702 10700 10698 10696 10694 10692 10689 10687 10684 10681 10680 10677 10675 10672 10669 10667 10665 10663 10661 10659 10656 10653 10649 10645 10643 10639 10634 10630 10626 10621 10614 10608 10604 10600 10596 10592 10588 10585 10583 10580 10578 10575 10577 10578 10561 10539 10535 10541 10540 10535 10539 10550 10546 10528 10523 10529 10524 10512 10505
10721 10721 10721 10722 10722 10722 10722 10722 10722 10722 10721 10721 10720 10719 10717 10717 10716 10714 10713 10713 10711 10709 10708 10706 10704 10702 10701 10699 10696 10694 10692 10690 10687 10685 10682 10680 10677 10674 10672 10669 10667 10664 10661 10659 10657 10654 10653 10650 10648 10646 10642 10638 10635 10631 10627 10622 10617 10611 10604 10598 10594 10589 10586 10581 10576 10574 10569 10565 10565 10563 10564 10565 10549 10529 10526 10530 10529 10527 10531 10542 10545 10529 10516 10516 10511 10503 10497
10718 10718 10718 10718 10718 10718 10718 10718 10718 10717 10717 10716 10715 10714 10712 10711 10710 10709 10708 10707 10706 10704 10702 10700 10698 10696 10694 10692 10689 10687 10685 10683 10680 10677 10674 10672 10670 10667 10663 10660 10657 10654 10652 10650 10648 10645 10643 10640 10638 10637 10635 10631 10627 10624 10620 10614 10610 10603 10594 10589 10584 10578 10574 10570 10565 10561 10554 10549 10550 10551 10551 10550 10536 10521 10519 10520 10519 10521 10523 10531 10538 10528 10512 10504 10498 10491 10485
10715 10715 10715 10715 10715 10715 10714 10714 10713 10713 10712 10711 10709 10708 10707 10706 10704 10703 10702 10700 10699 10697 10695 10693 10691 10689 10687 10685 10682 10680 10678 10676 10673 10669 10666 10663 10660 10657 10655 10651 10648 10646 10644 10642 10639 10636 10633 10630 10627 10626 10625 10622 10617 10615 10613 10607 10602 10596 10587 10581 10576 10569 10564 10561 10555 10549 10541 10535 10535 10535 10537 10534 10520 10510 10511 10512 10511 10512 10513 10519 10526 10519 10504 10494 10487 10479 10473
10712 10711 10711 10711 10711 10710 10710 10709 10709 10708 10707 10706 10704 10703 10702 10700 10699 10697 10696 10694 10693 10691 10689 10687 10684 10683 10680 10678 10675 10673 10671 10668 10665 10662 10659 10655 10651 10648 10644 10641 10639 10637 10635 10632 10629 10627 10624 10621 10617 10615 10615 10611 10606 10603 10602 10598 10592 10586 10580 10574 10567 10560 10555 10551 10546 10538 10529 10524 10523 10523 10524 10519 10502 10494 10499 10503 10501 10499 10499 10503 10510 10505 10494 10484 10477 10471 10465
10708 10708 10707 10707 10706 10706 10705 10705 10704 10703 10703 10701 10700 10698 10697 10695 10693 10691 10690 10688 10686 10684 10682 10680 10678 10676 10673 10671 10669 10666 10663 10661 10657 10654 10650 10646 10643 10640 10635 10631 10630 10628 10624 10622 10619 10617 10615 10612 10607 10605 10604 10601 10595 10591 10589 10584 10578 10575 10570 10562 10556 10552 10545 10540 10534 10526 10518 10514 10511 10511 10514 10509 10491 10483 10487 10489 10486 10485 10485 10487 10490 10489 10483 10475 10467 10461 10455
10704 10704 10703 10703 10702 10701 10701 10700 10700 10699 10698 10696 10695 10693 10692 10689 10687 10685 10683 10681 10679 10677 10675 10673 10671 10669 10666 10664 10662 10659 10655 10652 10649 10646 10642 10638 10634 10630 10626 10622 10620 10617 10614 10611 10608 10605 10604 10602 10597 10593 10592 10588 10583 10579 10577 10571 10566 10562 10556 10550 10545 10540 10533 10528 10522 10514 10508 10505 10501 10499 10502 10498 10487 10479 10478 10475 10472 10471 10471 10472 10474 10474 10469 10462 10457 10451 10443
10699 10699 10698 10698 10697 10697 10696 10695 10695 10694 10693 10691 10690 10688 10686 10684 10681 10679 10677 10674 10672 10670 10668 10665 10663 10661 10658 10656 10654 10651 10647 10643 10640 10636 10633 10629 10625 10621 10617 10613 10609 10605 10602 10599 10596 10593 10591 10590 10586 10581 10579 10575 10569 10565 10563 10559 10556 10549 10540 10535 10534 10527 10516 10510 10507 10502 10496 10494 10493 10491 10489 10484 10480 10475 10468 10463 10462 10461 10458 10461 10467 10465 10456 10449 10447 10442 10432
10695 10694 10694 10693 10693 10692 10691 10690 10689 10688 10687 10685 10684 10682 10679 10677 10674 10672 10670 10667 10665 10663 10660 10657 10655 10653 10650 10648 10645 10642 10639 10635 10631 10627 10623 10619 10614 10610 10608 10603 10598 10594 10590 10586 10584 10581 10577 10576 10573 10568 10565 10561 10555 10551 10548 10547 10548 10541 10527 10520 10520 10514 10501 10492 10490 10488 10482 10479 10483 10484 10477 10470 10467 10463 10455 10450 10449 10447 10445 10449 10456 10457 10449 10441 10437 10433 10424
10690 10689 10689 10688 10687 10686 10685 10684 10683 10682 10680 10679 10677 10675 10673 10670 10667 10664 10662 10659 10657 10655 10652 10649 10646 10643 10641 10638 10635 10632 10629 10625 10622 10618 10613 10609 10603 10598 10596 10591 10586 10581 10576 10571 10569 10566 10563 10562 10558 10555 10552 10546 10541 10539 10536 10532 10533 10530 10520 10511 10506 10498 10488 10479 10477 10476 10471 10469 10472 10472 10467 10461 10455 10446 10438 10435 10434 10431 10429 10431 10435 10437 10436 10431 10425 10421 10416
10685 10684 10684 10683 10682 10681 10680 10679 10677 10675 10674 10672 10670 10668 10666 10663 10659 10656 10653 10650 10648 10647 10644 10640 10637 10634 10631 10628 10624 10621 10618 10615 10611 10607 10603 10599 10594 10588 10584 10580 10575 10570 10564 10558 10554 10549 10547 10546 10543 10540 10538 10532 10527 10528 10525 10520 10518 10514 10510 10505 10493 10481 10475 10470 10468 10466 10464 10463 10464 10459 10454 10455 10448 10435 10426 10423 10421 10419 10417 10416 10417 10418 10418 10415 10410 10406 10403
10679 10679 10678 10678 10677 10675 10674 10672 10670 10669 10667 10665 10663 10661 10658 10655 10651 10648 10644 10641 10639 10637 10635 10632 10628 10625 10621 10618 10614 10611 10608 10604 10600 10596 10591 10588 10584 10579 10574 10569 10564 10560 10554 10548 10543 10536 10532 10530 10526 10525 10524 10518 10515 10514 10511 10507 10505 10500 10498 10494 10481 10470 10467 10464 10460 10456 10452 10454 10457 10452 10446 10446 10439 10427 10419 10414 10410 10408 10405 10402 10403 10403 10402 10399 10394 10390 10388
10673 10673 10672 10671 10670 10669 10667 10666 10664 10662 10660 10658 10656 10654 10651 10647 10643 10640 10636 10631 10628 10627 10624 10621 10617 10613 10610 10607 10603 10600 10597 10593 10590 10585 10581 10577 10573 10569 10564 10559 10554 10550 10545 10539 10533 10526 10521 10516 10511 10509 10509 10506 10504 10503 10497 10492 10491 10488 10485 10479 10469 10464 10464 10460 10453 10447 10440 10441 10446 10442 10437 10438 10431 10419 10413 10410 10406 10403 10397 10390 10389 10390 10388 10386 10381 10375 10372
10667 10666 10665 10664 10663 10662 10660 10659 10657 10655 10653 10651 10649 10646 10643 10639 10635 10632 10628 10624 10620 10617 10614 10611 10607 10602 10599 10596 10592 10589 10586 10582 10579 10575 10571 10567 10563 10559 10555 10550 10545 10541 10536 10530 10525 10518 10512 10505 10498 10494 10494 10492 10492 10491 10485 10480 10477 10476 10472 10466 10459 10457 10457 10450 10442 10436 10432 10434 10434 10425 10421 10428 10426 10412 10403 10400 10398 10396 10389 10380 10375 10373 10372 10371 10367 10360 10355
10662 10660 10659 10658 10656 10655 10653 10652 10650 10648 10646 10644 10641 10638 10635 10632 10628 10625 10621 10618 10615 10610 10605 10601 10597 10593 10589 10586 10582 10579 10576 10572 10569 10565 10562 10558 10554 10550 10546 10542 10537 10532 10527 10521 10516 10510 10504 10498 10489 10481 10479 10478 10478 10477 10472 10468 10466 10464 10459 10454 10449 10447 10444 10437 10428 10424 10423 10424 10421 10411 10407 10415 10417 10408 10397 10390 10387 10384 10380 10373 10366 10361 10357 10356 10354 10350 10343
10656 10654 10652 10651 10649 10648 10646 10644 10643 10640 10638 10636 10634 10631 10628 10625 10621 10619 10615 10612 10609 10605 10599 10594 10589 10585 10581 10577 10573 10569 10566 10562 10559 10556 10552 10549 10545 10541 10537 10533 10528 10524 10518 10512 10507 10501 10496 10490 10481 10472 10467 10465 10465 10463 10459 10456 10456 10453 10447 10442 10438 10433 10429 10425 10419 10415 10415 10413 10408 10402 10398 10399 10400 10397 10390 10383 10378 10373 10368 10363 10358 10353 10348 10345 10344 10342 10339
10649 10648 10646 10644 10642 10640 10638 10637 10635 10632 10630 10628 10625 10623 10621 10618 10614 10612 10610 10606 10603 10598 10592 10586 10581 10577 10573 10569 10565 10561 10557 10553 10550 10547 10543 10539 10536 10531 10527 10523 10520 10515 10509 10503 10498 10493 10488 10481 10473 10465 10457 10453 10451 10450 10447 10444 10445 10441 10433 10429 10425 10420 10416 10414 10409 10406 10406 10403 10396 10390 10387 10385 10383 10380 10377 10372 10368 10363 10358 10352 10347 10342 10338 10333 10330 10328 10326
10642 10641 10639 10637 10635 10633 10631 10629 10626 10624 10621 10619 10617 10615 10612 10609 10607 10605 10604 10600 10595 10591 10584 10579 10574 10569 10564 10560 10556 10553 10549 10545 10542 10538 10534 10530 10527 10523 10518 10515 10512 10507 10501 10494 10488 10484 10479 10473 10466 10458 10450 10443 10439 10437 10433 10432 10432 10428 10420 10415 10413 10410 10407 10403 10398 10394 10394 10391 10385 10378 10374 10371 10369 10366 10363 10359 10355 10352 10348 10343 10338 10333 10329 10323 10318 10314 10311
10636 10634 10633 10630 10628 10626 10624 10621 10619 10616 10613 10611 10608 10605 10603 10600 10598 10597 10595 10591 10587 10582 10576 10570 10565 10560 10555 10551 10548 10544 10541 10536 10532 10528 10525 10521 10518 10514 10510 10506 10503 10500 10494 10486 10479 10475 10470 10465 10458 10450 10442 10435 10430 10427 10422 10418 10417 10414 10408 10402 10400 10398 10395 10392 10386 10381 10378 10376 10373 10368 10363 10358 10356 10353 10349 10346 10341 10337 10335 10331 10326 10322 10319 10314 10308 10303 10298
10629 10628 10626 10624 10622 10619 10617 10614 10611 10608 10605 10602 10599 10596 10594 10592 10591 10589 10586 10582 10578 10573 10567 10561 10556 10551 10547 10543 10540 10536 10532 10527 10522 10517 10514 10511 10509 10506 10502 10498 10495 10491 10485 10478 10470 10465 10462 10458 10450 10441 10433 10426 10421 10418 10414 10407 10401 10399 10395 10389 10385 10383 10380 10378 10374 10370 10365 10361 10358 10355 10350 10346 10342 10339 10336 10333 10328 10324 10321 10318 10315 10311 10307 10302 10297 10291 10286
10623 10621 10620 10618 10616 10613 10610 10607 10603 10600 10596 10593 10589 10586 10584 10583 10581 10579 10576 10573 10568 10563 10558 10553 10548 10542 10537 10534 10531 10526 10523 10518 10513 10507 10503 10500 10499 10499 10496 10491 10487 10483 10478 10470 10460 10453 10452 10451 10443 10433 10425 10418 10411 10408 10407 10401 10391 10385 10382 10377 10373 10370 10367 10363 10361 10358 10354 10350 10346 10342 10339 10335 10331 10327 10323 10320 10315 10311 10307 10305 10303 10300 10296 10291 10286 10281 10276
10616 10614 10613 10611 10609 10606 10603 10599 10595 10591 10587 10583 10580 10577 10574 10573 10571 10568 10566 10563 10558 10553 10548 10544 10540 10534 10529 10524 10520 10515 10511 10508 10503 10499 10494 10491 10489 10489 10488 10485 10480 10475 10471 10463 10452 10444 10442 10442 10436 10425 10417 10410 10402 10397 10398 10396 10388 10378 10371 10366 10362 10359 10356 10352 10349 10345 10341 10337 10333 10330 10326 10324 10321 10317 10313 10309 10304 10300 10295 10291 10287 10286 10285 10281 10276 10270 10266
10609 10607 10605 10603 10601 10598 10595 10591 10587 10583 10578 10574 10571 10568 10565 10562 10560 10558 10555 10551 10548 10543 10538 10534 10531 10527 10521 10516 10510 10504 10500 10497 10493 10489 10486 10483 10480 10479 10479 10477 10473 10468 10464 10457 10446 10438 10436 10434 10429 10420 10412 10403 10394 10387 10386 10388 10384 10374 10365 10358 10353 10349 10345 10341 10338 10334 10330 10325 10321 10317 10313 10309 10307 10304 10301 10297 10292 10288 10284 10280 10274 10270 10269 10268 10264 10259 10255
10601 10599 10597 10594 10592 10590 10587 10583 10579 10575 10570 10565 10562 10559 10556 10553 10550 10547 10543 10539 10536 10533 10529 10525 10521 10516 10511 10507 10501 10496 10491 10488 10484 10479 10476 10473 10470 10469 10469 10467 10464 10461 10457 10449 10439 10433 10432 10428 10422 10416 10407 10395 10385 10378 10376 10376 10374 10367 10359 10351 10345 10339 10335 10331 10327 10323 10319 10315 10310 10305 10300 10296 10293 10289 10286 10284 10279 10274 10270 10267 10263 10259 10256 10255 10253 10249 10245
10593 10591 10588 10585 10583 10581 10578 10574 10570 10566 10562 10557 10553 10550 10546 10543 10540 10536 10532 10529 10525 10522 10519 10515 10510 10505 10499 10495 10490 10486 10482 10479 10475 10471 10468 10464 10460 10458 10457 10456 10454 10451 10448 10441 10431 10427 10427 10422 10416 10411 10403 10388 10375 10371 10370 10366 10360 10355 10350 10345 10338 10331 10325 10320 10316 10312 10309 10305 10300 10294 10289 10285 10281 10276 10272 10268 10265 10260 10255 10250 10247 10244 10242 10241 10240 10238 10235
10585 10582 10580 10577 10574 10572 10569 10565 10561 10557 10553 10549 10545 10541 10537 10533 10530 10527 10523 10519 10516 10512 10507 10503 10499 10493 10489 10484 10479 10474 10471 10468 10465 10462 10458 10454 10451 10449 10447 10444 10442 10441 10439 10432 10424 10421 10419 10414 10407 10403 10396 10381 10368 10364 10364 10358 10350 10343 10338 10334 10329 10323 10316 10310 10305 10300 10296 10293 10290 10285 10279 10275 10271 10268 10263 10257 10253 10249 10244 10239 10235 10232 10229 10226 10225 10224 10222
10577 10574 10571 10568 10565 10562 10559 10555 10551 10548 10544 10539 10535 10531 10527 10523 10521 10517 10513 10510 10506 10501 10496 10492 10488 10482 10478 10474 10469 10463 10459 10457 10454 10452 10448 10442 10438 10437 10437 10433 10430 10429 10428 10423 10417 10413 10410 10405 10399 10392 10383 10372 10364 10359 10355 10348 10340 10333 10327 10322 10317 10312 10306 10300 10294 10289 10284 10280 10276 10272 10267 10263 10260 10258 10255 10250 10246 10243 10239 10234 10229 10224 10221 10217 10214 10211 10209
10568 10565 10562 10559 10556 10553 10549 10545 10541 10538 10534 10529 10525 10522 10518 10514 10511 10508 10504 10500 10496 10491 10486 10482 10478 10472 10467 10464 10460 10454 10449 10446 10444 10442 10439 10432 10425 10423 10423 10420 10416 10416 10417 10413 10407 10402 10398 10393 10388 10380 10370 10362 10357 10351 10344 10337 10330 10323 10316 10311 10306 10300 10295 10290 10284 10277 10271 10267 10263 10259 10254 10249 10245 10243 10241 10237 10236 10235 10233 10229 10224 10217 10212 10209 10206 10202 10198
10560 10556 10553 10550 10547 10544 10540 10536 10532 10528 10524 10521 10517 10513 10509 10505 10501 10497 10494 10490 10486 10481 10476 10472 10468 10462 10457 10453 10450 10446 10440 10436 10433 10431 10429 10423 10416 10413 10412 10408 10403 10403 10405 10402 10395 10389 10384 10379 10374 10367 10358 10351 10345 10339 10330 10324 10318 10312 10305 10300 10295 10290 10285 10281 10275 10267 10260 10254 10251 10248 10243 10238 10234 10230 10226 10223 10222 10222 10221 10218 10214 10209 10204 10200 10197 10194 10188
10552 10548 10545 10542 10538 10535 10531 10528 10524 10520 10516 10513 10509 10505 10500 10496 10491 10487 10483 10479 10475 10471 10466 10462 10458 10453 10447 10443 10440 10437 10432 10427 10424 10420 10417 10413 10407 10403 10402 10398 10393 10391 10392 10388 10380 10374 10368 10362 10358 10353 10347 10338 10331 10324 10317 10310 10305 10300 10294 10289 10284 10279 10275 10270 10265 10259 10252 10245 10240 10236 10233 10230 10226 10221 10216 10211 10209 10207 10206 10202 10198 10195 10192 10191 10188 10185 10179
10544 10540 10537 10533 10529 10526 10522 10519 10515 10511 10507 10503 10500 10496 10491 10486 10481 10477 10473 10468 10464 10460 10456 10452 10447 10443 10437 10432 10429 10427 10422 10416 10412 10407 10403 10400 10396 10392 10390 10388 10386 10383 10380 10374 10367 10361 10355 10348 10341 10337 10332 10324 10315 10308 10303 10297 10292 10289 10285 10280 10273 10268 10262 10258 10254 10250 10245 10239 10231 10225 10221 10219 10216 10213 10208 10203 10198 10194 10192 10189 10185 10180 10177 10176 10176 10174 10168
10536 10532 10528 10525 10520 10517 10513 10510 10506 10502 10498 10493 10489 10485 10481 10476 10472 10468 10463 10459 10454 10450 10446 10442 10438 10433 10428 10423 10421 10418 10412 10405 10400 10396 10391 10388 10385 10381 10375 10372 10373 10373 10368 10359 10352 10348 10345 10337 10329 10322 10317 10311 10303 10295 10289 10284 10280 10277 10275 10272 10266 10259 10252 10246 10241 10238 10236 10231 10222 10215 10210 10207 10204 10201 10199 10197 10191 10184 10178 10175 10172 10168 10164 10160 10159 10158 10155
10529 10525 10521 10517 10512 10508 10505 10501 10497 10493 10489 10483 10479 10475 10471 10466 10462 10458 10454 10449 10445 10440 10436 10432 10427 10424 10420 10416 10412 10408 10401 10392 10388 10386 10379 10373 10372 10370 10362 10355 10356 10358 10353 10344 10338 10336 10333 10326 10316 10308 10301 10296 10290 10284 10278 10273 10268 10264 10261 10260 10257 10251 10244 10237 10231 10227 10223 10218 10211 10204 10200 10196 10191 10188 10187 10186 10183 10176 10168 10161 10156 10153 10150 10148 10147 10145 10142
10521 10517 10513 10509 10505 10501 10497 10492 10488 10483 10479 10474 10469 10465 10461 10456 10451 10447 10443 10440 10435 10430 10427 10422 10418 10416 10413 10408 10402 10396 10389 10381 10378 10377 10368 10359 10357 10357 10350 10343 10343 10343 10336 10327 10323 10323 10320 10312 10303 10296 10290 10284 10278 10272 10268 10264 10259 10253 10249 10246 10244 10239 10233 10226 10220 10215 10210 10204 10197 10191 10187 10183 10178 10173 10171 10171 10170 10167 10161 10152 10144 10138 10134 10134 10134 10134 10132
10513 10509 10505 10501 10498 10494 10489 10484 10479 10474 10469 10465 10460 10455 10451 10447 10441 10436 10433 10430 10426 10421 10417 10413 10410 10408 10405 10397 10389 10384 10379 10371 10368 10366 10357 10345 10340 10339 10334 10330 10332 10332 10322 10310 10306 10307 10305 10298 10290 10284 10279 10274 10268 10262 10258 10254 10250 10244 10239 10234 10229 10224 10218 10212 10207 10202 10196 10189 10182 10177 10173 10169 10165 10160 10157 10155 10156 10154 10150 10144 10136 10129 10123 10120 10119 10120 10119
10505 10501 10497 10493 10490 10486 10482 10478 10472 10466 10460 10455 10452 10447 10442 10438 10432 10426 10423 10421 10417 10412 10409 10406 10404 10402 10396 10385 10377 10374 10369 10360 10355 10354 10348 10336 10327 10321 10315 10315 10319 10320 10312 10301 10294 10291 10288 10283 10278 10273 10269 10263 10257 10251 10245 10240 10235 10231 10227 10222 10216 10210 10204 10198 10193 10188 10182 10175 10169 10163 10159 10156 10153 10149 10145 10141 10140 10139 10137 10133 10127 10121 10114 10109 10106 10105 10102
10498 10493 10489 10485 10481 10478 10475 10471 10465 10458 10450 10445 10442 10438 10433 10428 10423 10417 10414 10412 10407 10402 10399 10397 10393 10389 10383 10374 10367 10364 10358 10349 10342 10340 10336 10329 10318 10307 10300 10300 10303 10303 10297 10289 10283 10276 10271 10266 10263 10261 10257 10251 10244 10236 10229 10223 10218 10214 10210 10205 10201 10196 10190 10183 10177 10172 10167 10160 10155 10150 10146 10142 10139 10136 10132 10128 10126 10125 10124 10121 10117 10111 10104 10098 10094 10091 10088
10490 10486 10482 10477 10473 10470 10467 10463 10458 10451 10443 10436 10431 10427 10423 10418 10413 10408 10404 10401 10397 10393 10390 10385 10379 10374 10368 10362 10357 10353 10346 10338 10331 10327 10323 10318 10308 10296 10287 10288 10291 10287 10280 10274 10269 10263 10257 10253 10250 10247 10243 10237 10228 10219 10212 10206 10202 10198 10193 10190 10186 10181 10175 10168 10162 10157 10152 10147 10142 10136 10132 10128 10124 10119 10116 10113 10111 10110 10110 10109 10105 10099 10092 10086 10081 10078 10075
10482 10478 10474 10469 10465 10463 10460 10455 10450 10445 10438 10431 10424 10418 10413 10409 10405 10400 10396 10393 10389 10385 10379 10373 10367 10362 10356 10351 10346 10339 10330 10324 10320 10317 10314 10310 10301 10287 10277 10276 10276 10271 10265 10261 10257 10251 10246 10243 10239 10234 10227 10219 10211 10203 10195 10190 10186 10183 10179 10175 10171 10165 10160 10154 10149 10143 10138 10134 10130 10125 10120 10114 10109 10104 10101 10099 10097 10097 10097 10095 10091 10085 10079 10075 10071 10067 10064
10474 10471 10466 10461 10457 10455 10452 10447 10442 10437 10432 10425 10417 10411 10406 10402 10396 10392 10388 10384 10379 10374 10368 10361 10355 10349 10343 10339 10334 10326 10316 10309 10306 10306 10305 10302 10294 10282 10270 10264 10261 10257 10252 10247 10242 10237 10234 10231 10226 10219 10210 10202 10194 10186 10179 10174 10173 10171 10167 10161 10154 10148 10143 10139 10134 10128 10124 10122 10118 10113 10107 10101 10096 10091 10088 10086 10084 10082 10081 10080 10076 10071 10066 10064 10061 10058 10055